STARLINK-4321, 53082

Orbit data source: Space-Track

STARLINK-4321, 53082 is a payload satellite owned by SpaceX/Seattle (US) in SSO that was launched on Mon, 11 Jul 2022 UTC via an FALCON 9 launch vehicle from the Air Force Western Test Range (AFWTR). Payload-class satellites include a variety of spacecraft equipped with specific instruments for various scientific and technological missions. These include communications satellites like Starlink; space stations such as the ISS; scientific satellites like the Hubble; Earth observation satellites from companies like Planet Labs, Umbra, and HawkEye 360; GPS; miniature CubeSats for education and research; and military/defense satellites.

Loading next visibility...
Identifier
53082, 2022-077AR
Orbit
SSO
Country
Flag of USUS
Related business
Manufacturer
SpaceX/Seattle
Mission
Operational Commercial Communications
Bus & Motor
STARLINK, Unknown motor
Mass
297 kg wet, ~275 kg dry
Launch date (UTC)
2022-07-11 (3 years ago)
Launch vehicle
FALCON 9
Launch site
Air Force Western Test Range (AFWTR)
Object type
Payload
Rocket body
Debris
Shape & HBR
Box + 1 Pan, 10.1 m
Radar Cross Section
13.562 m², Large (>1 m²)

Expand to show TLE details & history
Last TLE update: 1 day ago

TLE from 1 day ago
0 STARLINK-4321
1 53082U 22077AR  25349.07206322 -.00000567  00000-0 -39591-4 0  9992
2 53082  97.6013 167.3655 0003138 182.1944 177.9268 15.01259870188222
Epoch: 2025-12-15T01:43Z
TLE epoch observation values (Epoch: 2025-12-15T01:43:46.262Z)
Latitude
0.00008°
Longitude
57.44685°
Altitude
568.247 km
Speed
7.576 km/s
True Right ascension
11h 09m 27s
True Declination
0° 00' 00"
Sunlit
Object was in daylight at epoch
Visualization orbit readout
Latitude
Unknown
Longitude
Unknown
Altitude
Unknown
Speed
Unknown
Apparent Right ascension
Unknown
Apparent Declination
Unknown
Sunlit
N/A
Visualization observer readout
Local Sidereal Time
00:19:33
Azimuth
Unknown
Elevation
Unknown
Doppler factor
Unknown
Orbital elements
Apogee altitude
562.187 km
Perigee altitude
557.832 km
Semi-major axis
6,938.147 km
Eccentricity
0.00031
Inclination
97.6013°
RAAN
167.3655°
Arg. of periapsis
182.1944°
True anomaly
177.9281°
Mean anomaly
177.9268°
Eccentric anomaly
177.92745°
Mean motion
3.75559 °/min
Orbital period
95.86 mins
BSTAR
-0.000039591
Loading maneuver chart data...
Computing Atmospheric mass density...
Loading historical data...
Loading historical data...
Loading historical data...
Loading historical data...
Loading historical data...
Loading historical data...
Loading historical data...

Documentation

Showing up to 5 results
|